OPS 4682 DEB, 38378

Orbit data source: Space-Track

OPS 4682 DEB, 38378 is space debris in LEO originally from a launch on Sat, 03 Apr 1965 UTC launched from the Air Force Western Test Range (AFWTR). Debris objects in space refer to the collection of defunct objects orbiting the Earth. Examples of debris include non-operational satellites, rocket bodies, and fragments generated from explosions, collisions, or faulty payload assembly.

Loading next visibility...
Identifier
38378, 1965-027CF
Orbit
LEO
Country
Flag of USUS
Related business
Manufacturer
Unknown
Mission
Spacecraft
Bus & Motor
Unknown
Mass
Unknown
Launch date (UTC)
1965-04-03 (61 years ago)
Launch vehicle
Unknown
Launch site
Air Force Western Test Range (AFWTR)
Object type
Payload
Rocket body
Debris
Shape & HBR
Unknown shape, 0.1 m
Radar Cross Section
Small (<0.1 m²)

Expand to show TLE details & history
Last TLE update: 1 day ago

TLE from 1 day ago
0 OPS 4682 DEB
1 38378U 65027CF  26035.26080478  .00000122  00000-0  36311-3 0  9992
2 38378  90.2357 336.4363 0033464 177.1933 182.9385 13.03205735601693
Epoch: 2026-02-04T06:15Z
TLE epoch observation values (Epoch: 2026-02-04T06:15:33.532Z)
Latitude
-0.00003°
Longitude
108.11665°
Altitude
1,277.937 km
Speed
7.205 km/s
True Right ascension
22h 25m 44s
True Declination
0° 00' 00"
Sunlit
Object was in daylight at epoch
Visualization orbit readout
Latitude
Unknown
Longitude
Unknown
Altitude
Unknown
Speed
Unknown
Apparent Right ascension
Unknown
Apparent Declination
Unknown
Sunlit
N/A
Visualization observer readout
Local Sidereal Time
08:45:44
Azimuth
Unknown
Elevation
Unknown
Doppler factor
Unknown
Orbital elements
Apogee altitude
1,272.19 km
Perigee altitude
1,221.159 km
Semi-major axis
7,624.811 km
Eccentricity
0.00335
Inclination
90.2357°
RAAN
336.4363°
Arg. of periapsis
177.1933°
True anomaly
182.91892°
Mean anomaly
182.9385°
Eccentric anomaly
182.9287°
Mean motion
3.25986 °/min
Orbital period
110.43 mins
BSTAR
0.00036311
Loading maneuver chart data...
Computing Atmospheric mass density...
Loading historical data...
Loading historical data...
Loading historical data...
Loading historical data...
Loading historical data...
Loading historical data...
Loading historical data...

Documentation

Showing up to 5 results
|